Tracking 27172 objects as of 2-Apr-2023
HD Live streaming from Space Station
objects crossing your sky now

PSLV DEB

Track PSLV DEB now!
10-day predictions


NORAD ID: 35339
Int'l Code: 2001-049PX
Perigee: 637.6 km
Apogee: 893.9 km
Inclination: 98.3 °
Period: 100.0 minutes
Semi major axis: 7136 km
RCS: 0.0072 m2 (small)
Launch date: October 22, 2001
Source: India (IND)
Launch site: SRIHARIKOTA (SRI)

Note: This is SATELLITE DEBRIS
Your satellite tracking list
Your tracking list is empty




NASA's NSSDC Master Catalog

Two Line Element Set (TLE):
1 35339U 01049PX  23091.13561820  .00010632  00000-0  28016-2 0  9999
2 35339  98.2694 222.1702 0179522 113.0993 248.9230 14.39967829 68775
Source of the keplerian elements: AFSPC